This demonstration page uses our WeatherBlox Daily Observations layout. Learn more.

Left ArrowRight Arrow

39.29038, -76.61219

Hourly Observations for December 5, 2021

Temp ( °F °C ) Dew Point ( °F °C ) Humidity (%) Winds ( mph kmh ) Pressure ( in mb ) Visibility ( mi km ) Precip ( " mm )
12:54 am 00:54 Mostly Clear 39 3.9 29 -1.7 67 67 NW 3 6 30.24 1024 10 16 N/A
1:54 am 01:54 Mostly Clear 40 4.4 26 -3.3 58 58 N N/A 30.27 1025 10 16 N/A
2:54 am 02:54 Mostly Clear 38 3.3 27 -2.8 65 65 W 3 6 30.28 1025 10 16 N/A
3:54 am 03:54 Mostly Clear 34 1.1 27 -2.8 76 76 N N/A 30.29 1026 10 16 N/A
4:54 am 04:54 Mostly Clear 35 1.7 26 -3.3 70 70 N N/A 30.31 1026 10 16 N/A
5:54 am 05:54 Mostly Clear 39 3.9 24 -4.4 55 55 NNE 3 6 30.32 1027 10 16 N/A
6:54 am 06:54 Mostly Clear 33 0.6 25 -3.9 72 72 N N/A 30.35 1028 10 16 N/A
7:54 am 07:54 Mostly Sunny 34 1.1 26 -3.3 73 73 N N/A 30.36 1028 10 16 N/A
8:54 am 08:54 Partly Cloudy 44 6.7 29 -1.7 55 55 ENE 5 7 30.37 1029 10 16 N/A
9:54 am 09:54 Mostly Sunny 47 8.3 27 -2.8 46 46 E 8 13 30.39 1029 10 16 N/A
10:54 am 10:54 Mostly Sunny 49 9.4 22 -5.6 35 35 E 12 19 30.39 1029 10 16 N/A
11:54 am 11:54 Partly Cloudy 51 10.6 23 -5 33 33 E 9 15 30.36 1028 10 16 N/A
12:54 pm 12:54 Cloudy 50 10 23 -5 35 35 SE 8 13 30.33 1027 10 16 N/A
1:54 pm 13:54 Mostly Cloudy 51 10.6 22 -5.6 32 32 SE 8 13 30.31 1027 10 16 N/A
2:54 pm 14:54 Mostly Cloudy 51 10.6 21 -6.1 31 31 SE 8 13 30.29 1026 10 16 N/A
3:54 pm 15:54 Cloudy 51 10.6 24 -4.4 35 35 E 8 13 30.27 1025 10 16 N/A
4:54 pm 16:54 Mostly Cloudy 48 8.9 25 -3.9 41 41 ESE 5 7 30.25 1024 10 16 N/A
5:54 pm 17:54 Mostly Cloudy 46 7.8 25 -3.9 44 44 N N/A 30.25 1024 10 16 N/A
6:54 pm 18:54 Mostly Cloudy 45 7.2 30 -1.1 56 56 E 5 7 30.24 1024 10 16 N/A
7:54 pm 19:54 Cloudy 48 8.9 35 1.7 61 61 ESE 6 9 30.22 1024 10 16 N/A
8:54 pm 20:54 Cloudy 48 8.9 38 3.3 68 68 N N/A 30.21 1023 10 16 N/A
9:54 pm 21:54 Cloudy 48 8.9 39 3.9 71 71 N N/A 30.18 1022 10 16 N/A
10:54 pm 22:54 Mostly Cloudy 49 9.4 40 4.4 71 71 N N/A 30.16 1021 10 16 N/A
11:32 pm 23:32 Mostly Cloudy 48 8.9 41 5 77 77 N N/A 30.15 1021 10 16 N/A
11:54 pm 23:54 Mostly Cloudy 47 8.3 40 4.4 77 77 N 3 6 30.13 1020 10 16 N/A

Powered by AerisWeather